Regional Weather Roundup
Issued by NWS

Home | Current Version | Previous Version | Text Only | Print | Product List | Glossary Off
Versions: 1 2 3 4 5 6 7 8 9 10 11 12 13 14 15 16 17 18 19 20 21 22 23 24 25 26 27 28 29 30 31 32 33 34 35 36 37 38 39 40 41 42 43 44 45 46 47 48 49 50

000
ASUS45 KBOI 201310
RWRID
WEATHER ROUNDUP FOR IDAHO
NATIONAL WEATHER SERVICE BOISE ID
700 AM MDT MON APR 20 2015

NOTE: "FAIR" INDICATES FEW OR NO CLOUDS BELOW 12000 FEET
WITH NO SIGNIFICANT WEATHER AND/OR OBSTRUCTIONS TO VISIBILITY

IDZ012-014-201400-
SOUTHWEST IDAHO


CITY           SKY/WX    TMP DP  RH WIND       PRES   REMARKS
BOISE          CLEAR     43  30  60 S3        29.95R
CALDWELL       CLEAR     37  25  60 CALM      29.96S
$$

IDZ016-017-201400-
SOUTHCENTRAL IDAHO


CITY           SKY/WX    TMP DP  RH WIND       PRES   REMARKS
BURLEY         CLEAR     34  26  72 CALM      29.97R
JEROME         CLEAR     37  22  54 E8        29.97R WCI  31
TWIN FALLS     CLEAR     43  19  38 S13       29.96S
$$

IDZ019>023-201400-
SOUTHEAST IDAHO


CITY           SKY/WX    TMP DP  RH WIND       PRES   REMARKS
IDAHO FALLS    CLEAR     32  25  75 N5        30.00R WCI  27
POCATELLO      CLEAR     35  26  69 S3        29.99R
REXBURG        CLEAR     33  24  69 NE7       30.00S WCI  27
$$

IDZ006-010-011-018-031-032-201400-
CENTRAL IDAHO MOUNTAINS


CITY           SKY/WX    TMP DP  RH WIND       PRES   REMARKS
MCCALL         CLEAR     28  24  85 CALM      29.99S
HAILEY         CLEAR     37  25  60 NW9       30.01S WCI  31
STANLEY          N/A     23  17  78 CALM      30.07R
SALMON         CLEAR     28  25  86 CALM      30.03R
CHALLIS        CLEAR     32  21  64 CALM      30.03R
$$

IDZ002-004-006-007-026-201400-
NORTHERN IDAHO


CITY           SKY/WX    TMP DP  RH WIND       PRES   REMARKS
LEWISTON       PTCLDY    45  35  68 E5        29.98R
LOWELL           N/A     38  35  89 CALM      30.07R
COEUR D`ALENE  CLEAR     36  30  80 NE5       29.99R WCI  32
MULLAN PASS    CLEAR     40  23  50 VRB3      30.00F
$$



USA.gov is the U.S. government's official web portal to all federal, state and local government web resources and services.